Terug naar catalogus

STARLINK-31468

ActiefCommunicatieVLEO
NORAD 58998·PAYLOAD·🇺🇸 United States

Gelanceerd Feb 23, 2024 vanaf Vandenberg Space Force Base

Loading…

Volgende Passages (komende 24 uur)

TLE

VersSource: CelesTrak SupGP

Epoch: Sep 15, 2026, 03:20 UTC

1 58998C 24036A   26258.13937500 -.00011605  00000+0 -34306-3 0  2586
2 58998  53.1588 276.8293 0001317  92.2933  52.2097 15.34379537    11

Volg STARLINK-31468 in realtime met AllMySat

Download on the App Store